
Distance (Route):
Temperature : -46.8°C
Humidity : 22.1%
Pressure : 271.6hPa| Receiver | Frames | First received | Last received |
|---|---|---|---|
| SP4MAZ | 123 | 2026-08-30 11:26:27 | 2026-08-30 13:04:14 |
| SP3WXH-11 | 64 | 2026-08-30 11:55:34 | 2026-08-30 12:29:43 |
| OM5KV | 36 | 2026-08-30 12:31:29 | 2026-08-30 12:34:44 |
| SP3BTT-10 | 16 | 2026-08-30 12:11:19 | 2026-08-30 12:29:11 |
| SONDE2-11 | 13 | 2026-08-30 12:23:07 | 2026-08-30 12:29:51 |
| SQ9EZE-15 | 11 | 2026-08-30 12:14:28 | 2026-08-30 12:50:18 |
| SQ9EZE-16 | 7 | 2026-08-30 12:14:01 | 2026-08-30 12:50:39 |
| OE3JTB-15 | 1 | 2026-08-30 12:17:57 | 2026-08-30 12:17:57 |
| Receiver | Date | Latitude | Longitude | Direction | Speed | Altitude | Climb | Temperature | Humidity | Pressure | Voltage | Killtimer | Uptime | BKT | XDATA |
|---|---|---|---|---|---|---|---|---|---|---|---|---|---|---|---|
| SP4MAZ | 2026-08-30 13:04:14 | 52.49023 | 21.48173 | 0° | 0km/h | 26850m | 0.0m/s | -46.8°C | 22.1% | 271.6hPa | 2.7V | 00:00:00 | 00:00:00 | 00:00:00 | |
| SP4MAZ | 2026-08-30 13:03:43 | 52.49023 | 21.48173 | 0° | 0km/h | 26850m | 0.0m/s | -50.1°C | 25.9% | 255.4hPa | 2.7V | 00:00:00 | 00:00:00 | 00:00:00 | |
| SP4MAZ | 2026-08-30 13:02:46 | 52.49023 | 21.48173 | 0° | 0km/h | 26850m | 0.0m/s | -54.6°C | 23.4% | 225.8hPa | 2.7V | 00:00:00 | 00:00:00 | 00:00:00 | |
| SP4MAZ | 2026-08-30 13:01:41 | 52.49023 | 21.48173 | 0° | 0km/h | 26850m | 0.0m/s | -51.9°C | 3.3% | 193.4hPa | 2.7V | 00:00:00 | 00:00:00 | 00:00:00 | |
| SP4MAZ | 2026-08-30 13:01:07 | 52.49023 | 21.48173 | 0° | 0km/h | 26850m | 0.0m/s | -51.9°C | 2.3% | 178.1hPa | 2.7V | 00:00:00 | 00:00:00 | 00:00:00 | |
| SP4MAZ | 2026-08-30 13:00:42 | 52.49023 | 21.48173 | 0° | 0km/h | 26850m | 0.0m/s | -50.7°C | 1.9% | 167.9hPa | 2.7V | 00:00:00 | 00:00:00 | 00:00:00 | |
| SP4MAZ | 2026-08-30 13:00:22 | 52.49023 | 21.48173 | 0° | 0km/h | 26850m | 0.0m/s | -51.4°C | 2.0% | 159.4hPa | 2.7V | 00:00:00 | 00:00:00 | 00:00:00 | |
| SP4MAZ | 2026-08-30 12:59:34 | 52.49023 | 21.48173 | 0° | 0km/h | 26850m | 0.0m/s | -53.1°C | 2.0% | 141.1hPa | 2.7V | 00:00:00 | 00:00:00 | 00:00:00 | |
| SP4MAZ | 2026-08-30 12:59:13 | 52.49023 | 21.48173 | 0° | 0km/h | 26850m | 0.0m/s | -52.8°C | 1.5% | 133.9hPa | 2.7V | 00:00:00 | 00:00:00 | 00:00:00 | |
| SP4MAZ | 2026-08-30 12:58:50 | 52.49023 | 21.48173 | 0° | 0km/h | 26850m | 0.0m/s | -53.3°C | 1.4% | 125.8hPa | 2.7V | 00:00:00 | 00:00:00 | 00:00:00 | |
| SP4MAZ | 2026-08-30 12:58:30 | 52.49023 | 21.48173 | 0° | 0km/h | 26850m | 0.0m/s | -53.1°C | 1.3% | 118.5hPa | 2.7V | 00:00:00 | 00:00:00 | 00:00:00 | |
| SP4MAZ | 2026-08-30 12:57:31 | 52.49023 | 21.48173 | 0° | 0km/h | 26850m | 0.0m/s | -50.6°C | 1.0% | 100.3hPa | 2.7V | 00:00:00 | 00:00:00 | 00:00:00 | |
| SP4MAZ | 2026-08-30 12:55:41 | 52.49023 | 21.48173 | 0° | 0km/h | 26850m | 0.0m/s | -54.5°C | 1.2% | 71.8hPa | 2.7V | 00:00:00 | 00:00:00 | 00:00:00 | |
| SP4MAZ | 2026-08-30 12:55:20 | 52.49023 | 21.48173 | 0° | 0km/h | 26850m | 0.0m/s | -54.3°C | 1.2% | 67.3hPa | 2.7V | 00:00:00 | 00:00:00 | 00:00:00 | |
| SP4MAZ | 2026-08-30 12:55:00 | 52.49023 | 21.48173 | 0° | 0km/h | 26850m | 0.0m/s | -53.3°C | 1.1% | 62.6hPa | 2.7V | 00:00:00 | 00:00:00 | 00:00:00 | |
| SP4MAZ | 2026-08-30 12:54:30 | 52.49023 | 21.48173 | 0° | 0km/h | 26850m | 0.0m/s | -54.1°C | 1.2% | 56.3hPa | 2.7V | 00:00:00 | 00:00:00 | 00:00:00 | |
| SP4MAZ | 2026-08-30 12:54:05 | 52.49023 | 21.48173 | 0° | 0km/h | 26850m | 0.0m/s | -53.9°C | 1.1% | 51.7hPa | 2.7V | 00:00:00 | 00:00:00 | 00:00:00 | |
| SP4MAZ | 2026-08-30 12:53:06 | 52.49023 | 21.48173 | 0° | 0km/h | 26850m | 0.0m/s | -53.1°C | 1.0% | 41.6hPa | 2.7V | 00:00:00 | 00:00:00 | 00:00:00 | |
| SP4MAZ | 2026-08-30 12:52:43 | 52.49023 | 21.48173 | 0° | 0km/h | 26850m | 0.0m/s | -54.3°C | 1.1% | 38.1hPa | 2.7V | 00:00:00 | 00:00:00 | 00:00:00 | |
| SP4MAZ | 2026-08-30 12:51:55 | 52.49023 | 21.48173 | 0° | 0km/h | 26850m | 0.0m/s | -53.6°C | 1.0% | 31.8hPa | 2.7V | 00:00:00 | 00:00:00 | 00:00:00 | |
| SQ9EZE-16 | 2026-08-30 12:50:39 | 52.49023 | 21.48173 | 0° | 0km/h | 26850m | 0.0m/s | 0°C | 0% | 0hPa | 2.7V | 00:00:00 | 00:00:00 | 00:00:00 | |
| SQ9EZE-15 | 2026-08-30 12:50:18 | 52.49023 | 21.48173 | 0° | 0km/h | 26850m | 0.0m/s | 0°C | 0% | 0hPa | 2.7V | 00:00:00 | 00:00:00 | 00:00:00 | |
| SQ9EZE-16 | 2026-08-30 12:50:05 | 52.49023 | 21.48173 | 0° | 0km/h | 26850m | 0.0m/s | 0°C | 0% | 0hPa | 2.7V | 00:00:00 | 00:00:00 | 00:00:00 | |
| SQ9EZE-15 | 2026-08-30 12:48:52 | 52.49023 | 21.48173 | 0° | 0km/h | 26850m | 0.0m/s | 0°C | 0% | 0hPa | 2.7V | 00:00:00 | 00:00:00 | 00:00:00 | |
| SP4MAZ | 2026-08-30 12:48:04 | 52.49023 | 21.48173 | 0° | 0km/h | 26850m | 0.0m/s | -43.1°C | 0.6% | 11.1hPa | 2.7V | 00:00:00 | 00:00:00 | 00:00:00 | |
| SP4MAZ | 2026-08-30 12:47:37 | 52.49023 | 21.48173 | 0° | 0km/h | 26850m | 0.0m/s | -41.2°C | 0.6% | 9.6hPa | 2.7V | 00:00:00 | 00:00:00 | 00:00:00 | |
| SQ9EZE-15 | 2026-08-30 12:45:31 | 52.49023 | 21.48173 | 0° | 0km/h | 26850m | 0.0m/s | 0°C | 0% | 0hPa | 2.7V | 00:00:00 | 00:00:00 | 00:00:00 | |
| SQ9EZE-15 | 2026-08-30 12:45:05 | 52.49023 | 21.48173 | 0° | 0km/h | 26850m | 0.0m/s | 0°C | 0% | 0hPa | 2.7V | 00:00:00 | 00:00:00 | 00:00:00 | |
| SP4MAZ | 2026-08-30 12:44:45 | 52.49023 | 21.48173 | 0° | 0km/h | 26850m | 0.0m/s | -38.3°C | 0.5% | 8.5hPa | 2.7V | 00:00:00 | 00:00:00 | 00:00:00 | |
| SP4MAZ | 2026-08-30 12:44:21 | 52.49023 | 21.48173 | 0° | 0km/h | 26850m | 0.0m/s | -38.9°C | 0.5% | 8.7hPa | 2.7V | 00:00:00 | 00:00:00 | 00:00:00 | |
| SP4MAZ | 2026-08-30 12:43:56 | 52.49023 | 21.48173 | 0° | 0km/h | 26850m | 0.0m/s | -38.9°C | 0.5% | 9.0hPa | 2.7V | 00:00:00 | 00:00:00 | 00:00:00 | |
| SQ9EZE-15 | 2026-08-30 12:43:55 | 52.49023 | 21.48173 | 0° | 0km/h | 26850m | 0.0m/s | 0°C | 0% | 0hPa | 2.7V | 00:00:00 | 00:00:00 | 00:00:00 | |
| SP4MAZ | 2026-08-30 12:43:26 | 52.49049 | 21.48140 | 324° | 16km/h | 26916m | 8.3m/s | -39.6°C | 0.5% | 9.2hPa | 2.7V | 00:00:00 | 00:00:00 | 00:00:00 | |
| SQ9EZE-15 | 2026-08-30 12:43:18 | 52.48934 | 21.48156 | 332° | 7km/h | 26503m | 6.3m/s | 0°C | 0% | 0hPa | 2.7V | 00:00:00 | 00:00:00 | 00:00:00 | |
| SP4MAZ | 2026-08-30 12:43:04 | 52.49023 | 21.48173 | 0° | 0km/h | 26850m | 0.0m/s | -40.6°C | 0.5% | 9.5hPa | 2.7V | 00:00:00 | 00:00:00 | 00:00:00 | |
| SP4MAZ | 2026-08-30 12:42:43 | 52.49023 | 21.48173 | 0° | 0km/h | 26850m | 0.0m/s | -42.0°C | 0.5% | 9.7hPa | 2.7V | 00:00:00 | 00:00:00 | 00:00:00 | |
| SQ9EZE-15 | 2026-08-30 12:40:18 | 52.49023 | 21.48173 | 0° | 0km/h | 26850m | 0.0m/s | 0°C | 0% | 0hPa | 2.7V | 00:00:00 | 00:00:00 | 00:00:00 | |
| SP4MAZ | 2026-08-30 12:39:39 | 52.49023 | 21.48173 | 0° | 0km/h | 26850m | 0.0m/s | -44.8°C | 0.7% | 11.8hPa | 2.7V | 00:00:00 | 00:00:00 | 00:00:00 | |
| SP4MAZ | 2026-08-30 12:34:56 | 52.49023 | 21.48173 | 0° | 0km/h | 26850m | 0.0m/s | -45.1°C | 0.7% | 16.0hPa | 2.7V | 00:00:00 | 00:00:00 | 00:00:00 | |
| OM5KV | 2026-08-30 12:34:44 | 52.49023 | 21.48173 | 0° | 0km/h | 26850m | 0.0m/s | -46.2°C | 0.7% | 16.2hPa | 2.7V | 00:00:00 | 00:00:00 | 00:00:00 | |
| OM5KV | 2026-08-30 12:34:34 | 52.49023 | 21.48173 | 0° | 0km/h | 26850m | 0.0m/s | -46.6°C | 0.7% | 16.3hPa | 2.7V | 00:00:00 | 00:00:00 | 00:00:00 | |
| OM5KV | 2026-08-30 12:34:28 | 52.49023 | 21.48173 | 0° | 0km/h | 26850m | 0.0m/s | -47.4°C | 0.7% | 16.4hPa | 2.7V | 00:00:00 | 00:00:00 | 00:00:00 | |
| OM5KV | 2026-08-30 12:34:15 | 52.49023 | 21.48173 | 0° | 0km/h | 26850m | 0.0m/s | -47.2°C | 0.8% | 16.7hPa | 2.7V | 00:00:00 | 00:00:00 | 00:00:00 | |
| OM5KV | 2026-08-30 12:34:09 | 52.49023 | 21.48173 | 0° | 0km/h | 26850m | 0.0m/s | -47.1°C | 0.7% | 16.8hPa | 2.7V | 00:00:00 | 00:00:00 | 00:00:00 | |
| OM5KV | 2026-08-30 12:34:03 | 52.49023 | 21.48173 | 0° | 0km/h | 26850m | 0.0m/s | -47.2°C | 0.8% | 16.9hPa | 2.7V | 00:00:00 | 00:00:00 | 00:00:00 | |
| OM5KV | 2026-08-30 12:34:00 | 52.49023 | 21.48173 | 0° | 0km/h | 26850m | 0.0m/s | -47.2°C | 0.8% | 16.9hPa | 2.7V | 00:00:00 | 00:00:00 | 00:00:00 | |
| OM5KV | 2026-08-30 12:33:48 | 52.49023 | 21.48173 | 0° | 0km/h | 26850m | 0.0m/s | -47.1°C | 0.7% | 17.1hPa | 2.7V | 00:00:00 | 00:00:00 | 00:00:00 | |
| OM5KV | 2026-08-30 12:33:46 | 52.49023 | 21.48173 | 0° | 0km/h | 26850m | 0.0m/s | -47.2°C | 0.7% | 17.2hPa | 2.7V | 00:00:00 | 00:00:00 | 00:00:00 | |
| SP4MAZ | 2026-08-30 12:33:39 | 52.49023 | 21.48173 | 0° | 0km/h | 26850m | 0.0m/s | -47.7°C | 0.7% | 17.3hPa | 2.7V | 00:00:00 | 00:00:00 | 00:00:00 | |
| OM5KV | 2026-08-30 12:33:35 | 52.49023 | 21.48173 | 0° | 0km/h | 26850m | 0.0m/s | -47.8°C | 0.8% | 17.4hPa | 2.7V | 00:00:00 | 00:00:00 | 00:00:00 | |
| OM5KV | 2026-08-30 12:33:29 | 52.49023 | 21.48173 | 0° | 0km/h | 26850m | 0.0m/s | -48.3°C | 0.8% | 17.4hPa | 2.7V | 00:00:00 | 00:00:00 | 00:00:00 | |
| OM5KV | 2026-08-30 12:33:28 | 52.49023 | 21.48173 | 0° | 0km/h | 26850m | 0.0m/s | -48.4°C | 0.8% | 17.5hPa | 2.7V | 00:00:00 | 00:00:00 | 00:00:00 | |
| OM5KV | 2026-08-30 12:33:24 | 52.49023 | 21.48173 | 0° | 0km/h | 26850m | 0.0m/s | -48.6°C | 0.8% | 17.5hPa | 2.7V | 00:00:00 | 00:00:00 | 00:00:00 | |
| OM5KV | 2026-08-30 12:33:22 | 52.49023 | 21.48173 | 0° | 0km/h | 26850m | 0.0m/s | -48.6°C | 0.8% | 17.6hPa | 2.7V | 00:00:00 | 00:00:00 | 00:00:00 | |
| OM5KV | 2026-08-30 12:33:19 | 52.49023 | 21.48173 | 0° | 0km/h | 26850m | 0.0m/s | -48.7°C | 0.8% | 17.6hPa | 2.7V | 00:00:00 | 00:00:00 | 00:00:00 | |
| OM5KV | 2026-08-30 12:33:17 | 52.49023 | 21.48173 | 0° | 0km/h | 26850m | 0.0m/s | -48.8°C | 0.8% | 17.7hPa | 2.7V | 00:00:00 | 00:00:00 | 00:00:00 | |
| OM5KV | 2026-08-30 12:33:14 | 52.49023 | 21.48173 | 0° | 0km/h | 26850m | 0.0m/s | -49.0°C | 0.8% | 17.7hPa | 2.7V | 00:00:00 | 00:00:00 | 00:00:00 | |
| OM5KV | 2026-08-30 12:33:10 | 52.49023 | 21.48173 | 0° | 0km/h | 26850m | 0.0m/s | -49.1°C | 0.8% | 17.8hPa | 2.7V | 00:00:00 | 00:00:00 | 00:00:00 | |
| OM5KV | 2026-08-30 12:33:08 | 52.49023 | 21.48173 | 0° | 0km/h | 26850m | 0.0m/s | -49.1°C | 0.9% | 17.8hPa | 2.7V | 00:00:00 | 00:00:00 | 00:00:00 | |
| OM5KV | 2026-08-30 12:33:01 | 52.49023 | 21.48173 | 0° | 0km/h | 26850m | 0.0m/s | -48.8°C | 0.8% | 18.0hPa | 2.7V | 00:00:00 | 00:00:00 | 00:00:00 | |
| OM5KV | 2026-08-30 12:33:00 | 52.49023 | 21.48173 | 0° | 0km/h | 26850m | 0.0m/s | -48.8°C | 0.9% | 18.0hPa | 2.7V | 00:00:00 | 00:00:00 | 00:00:00 | |
| OM5KV | 2026-08-30 12:32:55 | 52.49023 | 21.48173 | 0° | 0km/h | 26850m | 0.0m/s | -48.7°C | 0.8% | 18.1hPa | 2.7V | 00:00:00 | 00:00:00 | 00:00:00 | |
| OM5KV | 2026-08-30 12:32:49 | 52.49023 | 21.48173 | 0° | 0km/h | 26850m | 0.0m/s | -48.8°C | 0.8% | 18.2hPa | 2.7V | 00:00:00 | 00:00:00 | 00:00:00 | |
| OM5KV | 2026-08-30 12:32:39 | 52.49023 | 21.48173 | 0° | 0km/h | 26850m | 0.0m/s | -48.9°C | 0.8% | 18.4hPa | 2.7V | 00:00:00 | 00:00:00 | 00:00:00 | |
| OM5KV | 2026-08-30 12:32:34 | 52.49023 | 21.48173 | 0° | 0km/h | 26850m | 0.0m/s | -48.7°C | 0% | 0hPa | 2.7V | 00:00:00 | 00:00:00 | 00:00:00 | |
| OM5KV | 2026-08-30 12:32:33 | 52.49023 | 21.48173 | 0° | 0km/h | 26850m | 0.0m/s | -48.7°C | 0.8% | 18.5hPa | 2.7V | 00:00:00 | 00:00:00 | 00:00:00 | |
| OM5KV | 2026-08-30 12:32:28 | 52.49023 | 21.48173 | 0° | 0km/h | 26850m | 0.0m/s | -48.8°C | 0.8% | 18.6hPa | 2.7V | 00:00:00 | 00:00:00 | 00:00:00 | |
| OM5KV | 2026-08-30 12:32:24 | 52.49023 | 21.48173 | 0° | 0km/h | 26850m | 0.0m/s | -48.8°C | 0% | 0hPa | 2.7V | 00:00:00 | 00:00:00 | 00:00:00 | |
| OM5KV | 2026-08-30 12:32:22 | 52.49023 | 21.48173 | 0° | 0km/h | 26850m | 0.0m/s | -48.8°C | 0.8% | 18.8hPa | 2.7V | 00:00:00 | 00:00:00 | 00:00:00 | |
| OM5KV | 2026-08-30 12:32:16 | 52.49023 | 21.48173 | 0° | 0km/h | 26850m | 0.0m/s | 0°C | 0% | 18.9hPa | 2.7V | 00:00:00 | 00:00:00 | 00:00:00 | |
| OM5KV | 2026-08-30 12:32:07 | 52.49023 | 21.48173 | 0° | 0km/h | 26850m | 0.0m/s | 0°C | 0% | 0hPa | 2.7V | 00:00:00 | 00:00:00 | 00:00:00 | |
| OM5KV | 2026-08-30 12:32:03 | 52.49023 | 21.48173 | 0° | 0km/h | 26850m | 0.0m/s | 0°C | 0% | 19.1hPa | 2.7V | 00:00:00 | 00:00:00 | 00:00:00 | |
| OM5KV | 2026-08-30 12:31:57 | 52.49023 | 21.48173 | 0° | 0km/h | 26850m | 0.0m/s | 0°C | 0% | 0hPa | 2.7V | 00:00:00 | 00:00:00 | 00:00:00 | |
| OM5KV | 2026-08-30 12:31:41 | 52.49023 | 21.48173 | 0° | 0km/h | 26850m | 0.0m/s | 0°C | 0% | 0hPa | 2.7V | 00:00:00 | 00:00:00 | 00:00:00 | |
| OM5KV | 2026-08-30 12:31:34 | 52.50131 | 21.47962 | 0° | 0km/h | 27830m | 0.0m/s | 0°C | 0% | 0hPa | 2.7V | 00:00:00 | 00:00:00 | 00:00:00 | |
| OM5KV | 2026-08-30 12:31:29 | 52.49919 | 21.47921 | 8° | 212km/h | 27600m | 57.7m/s | 0°C | 0% | 0hPa | 2.7V | 00:00:00 | 00:00:00 | 00:00:00 | |
| SQ9EZE-15 | 2026-08-30 12:30:17 | 52.48934 | 21.48156 | 332° | 7km/h | 26503m | 6.3m/s | 0°C | 0% | 0hPa | 2.7V | 00:00:00 | 00:00:00 | 00:00:00 | |
| SQ9EZE-15 | 2026-08-30 12:29:52 | 52.48915 | 21.48177 | 344° | 11km/h | 26343m | 6.3m/s | 0°C | 0% | 0hPa | 2.7V | 00:00:00 | 00:00:00 | 00:00:00 | |
| SONDE2-11 | 2026-08-30 12:29:51 | 52.48909 | 21.48176 | 323° | 5km/h | 26315m | 5.2m/s | -52.0°C | 1.0% | 22.0hPa | 2.7V | 00:00:00 | 00:00:00 | 00:00:00 | |
| SP3WXH-11 | 2026-08-30 12:29:43 | 52.48866 | 21.48189 | 341° | 22km/h | 26130m | 5.1m/s | -51.9°C | 1.0% | 22.6hPa | 2.7V | 00:00:00 | 00:00:00 | 00:00:00 | |
| SONDE2-11 | 2026-08-30 12:29:20 | 52.48854 | 21.48205 | 331° | 18km/h | 26109m | 6.4m/s | -51.8°C | 1.0% | 22.7hPa | 2.7V | 00:00:00 | 00:00:00 | 00:00:00 | |
| SP3WXH-11 | 2026-08-30 12:29:12 | 52.48845 | 21.48204 | 344° | 7km/h | 26046m | 6.6m/s | -51.7°C | 0.9% | 22.9hPa | 2.7V | 00:00:00 | 00:00:00 | 00:00:00 | |
| SP3BTT-10 | 2026-08-30 12:29:11 | 52.48845 | 21.48203 | 345° | 16km/h | 26046m | 6.6m/s | -51.6°C | 3.8% | 22.9hPa | 2.7V | 00:00:00 | 00:00:00 | 08:30:00 | |
| SP4MAZ | 2026-08-30 12:29:04 | 52.48833 | 21.48217 | 311° | 7km/h | 26010m | 7.1m/s | -51.9°C | 1.0% | 23.0hPa | 2.6V | 00:00:00 | 00:00:00 | 00:00:00 | |
| SONDE2-11 | 2026-08-30 12:28:49 | 52.48798 | 21.48233 | 11° | 5km/h | 25896m | 5.6m/s | -51.7°C | 1.0% | 23.5hPa | 2.6V | 00:00:00 | 00:00:00 | 00:00:00 | |
| SP4MAZ | 2026-08-30 12:28:42 | 52.48789 | 21.48216 | 3° | 7km/h | 25857m | 4.8m/s | -51.6°C | 0.9% | 23.6hPa | 2.6V | 00:00:00 | 00:00:00 | 00:00:00 | |
| SP3WXH-11 | 2026-08-30 12:28:41 | 52.48785 | 21.48217 | 354° | 11km/h | 25846m | 5.1m/s | -51.6°C | 0.9% | 23.7hPa | 2.6V | 00:00:00 | 00:00:00 | 00:00:00 | |
| SP4MAZ | 2026-08-30 12:28:20 | 52.48760 | 21.48243 | 311° | 24km/h | 25725m | 6.4m/s | -52.0°C | 1.0% | 24.1hPa | 2.6V | 00:00:00 | 00:00:00 | 00:00:00 | |
| SONDE2-11 | 2026-08-30 12:28:18 | 52.48749 | 21.48262 | 301° | 13km/h | 25709m | 7.0m/s | -52.1°C | 1.0% | 24.2hPa | 2.6V | 00:00:00 | 00:00:00 | 00:00:00 | |
| SP3WXH-11 | 2026-08-30 12:28:10 | 52.48752 | 21.48296 | 267° | 11km/h | 25652m | 7.4m/s | -52.2°C | 1.0% | 24.4hPa | 2.6V | 00:00:00 | 00:00:00 | 00:00:00 | |
| SONDE2-11 | 2026-08-30 12:27:47 | 52.48760 | 21.48452 | 263° | 11km/h | 25519m | 5.8m/s | -51.8°C | 1.0% | 25.0hPa | 2.6V | 00:00:00 | 00:00:00 | 00:00:00 | |
| SP3WXH-11 | 2026-08-30 12:27:39 | 52.48777 | 21.48491 | 233° | 11km/h | 25444m | 4.6m/s | -51.6°C | 0.9% | 25.2hPa | 2.6V | 00:00:00 | 00:00:00 | 00:00:00 | |
| SONDE2-11 | 2026-08-30 12:27:16 | 52.48816 | 21.48542 | 170° | 16km/h | 25295m | 6.8m/s | -51.5°C | 1.0% | 25.8hPa | 2.6V | 00:00:00 | 00:00:00 | 00:00:00 | |
| SP3WXH-11 | 2026-08-30 12:27:07 | 52.48851 | 21.48518 | 182° | 2km/h | 25248m | 5.4m/s | -51.3°C | 0.9% | 26.0hPa | 2.6V | 00:00:00 | 00:00:00 | 00:00:00 | |
| SONDE2-11 | 2026-08-30 12:26:45 | 52.48879 | 21.48407 | 106° | 15km/h | 25093m | 8.2m/s | -52.2°C | 1.0% | 26.6hPa | 2.6V | 00:00:00 | 00:00:00 | 00:00:00 | |
| SP3WXH-11 | 2026-08-30 12:26:36 | 52.48879 | 21.48385 | 21° | 11km/h | 25039m | 7.1m/s | -52.3°C | 1.0% | 26.8hPa | 2.6V | 00:00:00 | 00:00:00 | 00:00:00 | |
| SONDE2-11 | 2026-08-30 12:26:14 | 52.48892 | 21.48333 | 91° | 11km/h | 24890m | 5.6m/s | -52.9°C | 1.0% | 27.4hPa | 2.6V | 00:00:00 | 00:00:00 | 00:00:00 | |
| SP3BTT-10 | 2026-08-30 12:26:09 | 52.48890 | 21.48307 | 88° | 5km/h | 24864m | 6.2m/s | -53.1°C | 4.0% | 27.5hPa | 2.6V | 00:00:00 | 00:00:00 | 00:00:00 | |
| SP3WXH-11 | 2026-08-30 12:26:05 | 52.48891 | 21.48307 | 211° | 7km/h | 24837m | 7.2m/s | -53.4°C | 1.1% | 27.7hPa | 2.7V | 00:00:00 | 00:00:00 | 00:00:00 | |
| SONDE2-11 | 2026-08-30 12:25:43 | 52.48895 | 21.48271 | 77° | 4km/h | 24684m | 5.2m/s | -52.9°C | 1.0% | 28.3hPa | 2.7V | 00:00:00 | 00:00:00 | 00:00:00 | |
| SP3BTT-10 | 2026-08-30 12:25:39 | 52.48894 | 21.48269 | 342° | 7km/h | 24671m | 7.3m/s | -52.8°C | 4.0% | 28.3hPa | 2.7V | 00:00:00 | 00:00:00 | 00:00:00 | |
| SP3WXH-11 | 2026-08-30 12:25:34 | 52.48898 | 21.48279 | 189° | 7km/h | 24640m | 6.4m/s | -52.8°C | 1.0% | 28.5hPa | 2.7V | 00:00:00 | 00:00:00 | 00:00:00 | |
| SP3WXH-11 | 2026-08-30 12:25:03 | 52.48981 | 21.48267 | 146° | 16km/h | 24436m | 5.9m/s | -52.8°C | 1.0% | 29.4hPa | 2.7V | 00:00:00 | 00:00:00 | 00:00:00 | |
| SONDE2-11 | 2026-08-30 12:24:40 | 52.49060 | 21.48221 | 141° | 15km/h | 24292m | 5.8m/s | -52.2°C | 1.0% | 30.1hPa | 2.7V | 00:00:00 | 00:00:00 | 00:00:00 | |
| SP3WXH-11 | 2026-08-30 12:24:32 | 52.49077 | 21.48186 | 190° | 5km/h | 24239m | 7.2m/s | -52.2°C | 1.0% | 30.4hPa | 2.7V | 00:00:00 | 00:00:00 | 00:00:00 | |
| SP3BTT-10 | 2026-08-30 12:24:24 | 52.49087 | 21.48176 | 97° | 13km/h | 24191m | 5.6m/s | -52.4°C | 3.9% | 30.5hPa | 2.7V | 00:00:00 | 00:00:00 | 00:00:00 | |
| SONDE2-11 | 2026-08-30 12:24:09 | 52.49079 | 21.48140 | 109° | 15km/h | 24099m | 6.7m/s | -52.5°C | 1.0% | 31.0hPa | 2.7V | 00:00:00 | 00:00:00 | 00:00:00 | |
| SP3WXH-11 | 2026-08-30 12:24:01 | 52.49088 | 21.48085 | 86° | 13km/h | 24049m | 9.1m/s | -52.5°C | 1.0% | 31.3hPa | 2.7V | 00:00:00 | 00:00:00 | 00:00:00 | |
| SONDE2-11 | 2026-08-30 12:23:38 | 52.49081 | 21.47979 | 70° | 13km/h | 23902m | 6.0m/s | 0°C | -1.0% | 32.0hPa | 2.7V | 00:00:00 | 00:00:00 | 00:00:00 | |
| SP3WXH-11 | 2026-08-30 12:23:30 | 52.49086 | 21.47945 | 105° | 9km/h | 23850m | 7.1m/s | -53.6°C | 1.1% | 32.2hPa | 2.7V | 00:00:00 | 00:00:00 | 00:00:00 | |
| SONDE2-11 | 2026-08-30 12:23:07 | 52.49127 | 21.47867 | 153° | 15km/h | 23696m | 5.0m/s | 0°C | -1.0% | -1.0hPa | 2.7V | 00:00:00 | 00:00:00 | 00:00:00 | |
| SP3WXH-11 | 2026-08-30 12:23:00 | 52.49152 | 21.47846 | 125° | 9km/h | 23659m | 7.9m/s | -54.0°C | 1.1% | 33.2hPa | 2.7V | 00:00:00 | 00:00:00 | 00:00:00 | |
| SP3BTT-10 | 2026-08-30 12:22:54 | 52.49151 | 21.47831 | 59° | 9km/h | 23628m | 4.8m/s | -54.0°C | 4.2% | 33.3hPa | 2.7V | 00:00:00 | 00:00:00 | 00:00:00 | |
| SP3WXH-11 | 2026-08-30 12:22:28 | 52.49120 | 21.47763 | 37° | 9km/h | 23472m | 4.1m/s | -54.4°C | 1.1% | 34.2hPa | 2.6V | 00:00:00 | 00:00:00 | 00:00:00 | |
| SP3WXH-11 | 2026-08-30 12:21:57 | 52.49163 | 21.47737 | 191° | 5km/h | 23278m | 6.2m/s | -53.4°C | 1.1% | 35.2hPa | 2.6V | 00:00:00 | 00:00:00 | 00:00:00 | |
| SP3BTT-10 | 2026-08-30 12:21:53 | 52.49169 | 21.47730 | 126° | 9km/h | 23254m | 6.2m/s | -53.3°C | 4.1% | 35.3hPa | 2.6V | 00:00:00 | 00:00:00 | 00:00:00 | |
| SP3WXH-11 | 2026-08-30 12:21:26 | 52.49222 | 21.47742 | 138° | 16km/h | 23092m | 6.8m/s | -53.3°C | 1.1% | 36.3hPa | 2.6V | 00:00:00 | 00:00:00 | 00:00:00 | |
| SP3WXH-11 | 2026-08-30 12:20:55 | 52.49267 | 21.47617 | 87° | 7km/h | 22900m | 7.7m/s | -53.6°C | 1.1% | 37.3hPa | 2.6V | 00:00:00 | 00:00:00 | 00:00:00 | |
| SP3BTT-10 | 2026-08-30 12:20:53 | 52.49266 | 21.47611 | 62° | 7km/h | 22888m | 5.8m/s | -53.6°C | 4.2% | 37.4hPa | 2.6V | 00:00:00 | 00:00:00 | 00:00:00 | |
| SP3WXH-11 | 2026-08-30 12:20:24 | 52.49187 | 21.47557 | 358° | 16km/h | 22700m | 7.0m/s | -53.9°C | 1.1% | 38.6hPa | 2.6V | 00:00:00 | 00:00:00 | 00:00:00 | |
| SP3WXH-11 | 2026-08-30 12:19:53 | 52.49167 | 21.47548 | 235° | 7km/h | 22512m | 6.5m/s | -53.6°C | 1.1% | 39.7hPa | 2.6V | 00:00:00 | 00:00:00 | 00:00:00 | |
| SP4MAZ | 2026-08-30 12:19:38 | 52.49187 | 21.47566 | 194° | 11km/h | 22420m | 5.5m/s | -53.1°C | 1.1% | 40.3hPa | 2.6V | 00:00:00 | 00:00:00 | 00:00:00 | |
| SP3BTT-10 | 2026-08-30 12:19:37 | 52.49192 | 21.47569 | 217° | 18km/h | 22408m | 7.7m/s | -53.0°C | 4.2% | 40.3hPa | 2.6V | 00:00:00 | 00:00:00 | 08:30:00 | |
| SP3WXH-11 | 2026-08-30 12:19:22 | 52.49244 | 21.47583 | 174° | 20km/h | 22311m | 7.0m/s | -53.1°C | 1.1% | 41.0hPa | 0V | 00:00:00 | 00:00:00 | 00:00:00 | |
| SP4MAZ | 2026-08-30 12:19:17 | 52.49260 | 21.47564 | 121° | 18km/h | 22279m | 7.0m/s | -53.1°C | 1.1% | 41.2hPa | 0V | 00:00:00 | 00:00:00 | 00:00:00 | |
| SP3BTT-10 | 2026-08-30 12:19:07 | 52.49306 | 21.47518 | 140° | 9km/h | 22218m | 6.9m/s | -52.9°C | 4.1% | 41.5hPa | 0V | 00:00:00 | 00:00:00 | 00:00:00 | |
| SP3WXH-11 | 2026-08-30 12:18:51 | 52.49348 | 21.47403 | 97° | 20km/h | 22113m | 5.1m/s | -52.6°C | 1.1% | 42.2hPa | 0V | 00:00:00 | 00:00:00 | 00:00:00 | |
| SP4MAZ | 2026-08-30 12:18:24 | 52.49344 | 21.47219 | 114° | 16km/h | 21967m | 6.6m/s | -53.5°C | 1.1% | 43.2hPa | 0V | 00:00:00 | 00:00:00 | 00:00:00 | |
| SP3WXH-11 | 2026-08-30 12:18:20 | 52.49363 | 21.47195 | 126° | 9km/h | 21930m | 5.1m/s | -53.6°C | 1.2% | 43.5hPa | 0V | 00:00:00 | 00:00:00 | 00:00:00 | |
| SP4MAZ | 2026-08-30 12:18:04 | 52.49347 | 21.47161 | 272° | 2km/h | 21848m | 6.0m/s | -53.8°C | 1.2% | 44.0hPa | 0V | 00:00:00 | 00:00:00 | 00:00:00 | |
| OE3JTB-15 | 2026-08-30 12:17:57 | 52.49347 | 21.47162 | 135° | 9km/h | 21796m | 5.3m/s | 0°C | 0% | 0hPa | 0V | 00:00:00 | 00:00:00 | 00:00:00 | |
| SP3BTT-10 | 2026-08-30 12:17:52 | 52.49357 | 21.47148 | 140° | 15km/h | 21767m | 5.3m/s | -53.4°C | 4.1% | 44.5hPa | 0V | 00:00:00 | 00:00:00 | 00:00:00 | |
| SP4MAZ | 2026-08-30 12:17:42 | 52.49370 | 21.47118 | 148° | 18km/h | 21709m | 6.7m/s | -54.1°C | 1.1% | 45.0hPa | 0V | 00:00:00 | 00:00:00 | 00:00:00 | |
| SP3WXH-11 | 2026-08-30 12:17:18 | 52.49431 | 21.46919 | 90° | 18km/h | 21564m | 5.4m/s | -53.7°C | 1.2% | 46.0hPa | 0V | 00:00:00 | 00:00:00 | 00:00:00 | |
| SP3WXH-11 | 2026-08-30 12:16:47 | 52.49411 | 21.46718 | 50° | 13km/h | 21381m | 5.2m/s | -54.3°C | 1.2% | 47.4hPa | 0V | 00:00:00 | 00:00:00 | 00:00:00 | |
| SQ9EZE-16 | 2026-08-30 12:16:23 | 52.49373 | 21.46710 | 19° | 9km/h | 21247m | 4.4m/s | 0°C | 0% | 0hPa | 0V | 00:00:00 | 00:00:00 | 00:00:00 | |
| SP4MAZ | 2026-08-30 12:16:19 | 52.49366 | 21.46699 | 32° | 13km/h | 21217m | 5.0m/s | -54.4°C | 1.2% | 48.6hPa | 0V | 00:00:00 | 00:00:00 | 00:00:00 | |
| SP3WXH-11 | 2026-08-30 12:16:16 | 52.49357 | 21.46698 | 330° | 9km/h | 21193m | 6.0m/s | -54.3°C | 1.2% | 48.8hPa | 0V | 00:00:00 | 00:00:00 | 00:00:00 | |
| SP3BTT-10 | 2026-08-30 12:16:06 | 52.49342 | 21.46695 | 29° | 11km/h | 21142m | 6.7m/s | 0°C | 0% | 0hPa | 0V | 00:00:00 | 00:00:00 | 00:00:00 | |
| SP3WXH-11 | 2026-08-30 12:15:45 | 52.49334 | 21.46751 | 264° | 7km/h | 21010m | 7.1m/s | -54.1°C | 1.2% | 50.2hPa | 0V | 00:00:00 | 00:00:00 | 00:00:00 | |
| SQ9EZE-16 | 2026-08-30 12:15:39 | 52.49339 | 21.46769 | 249° | 13km/h | 20985m | 5.1m/s | 0°C | 0% | 0hPa | 0V | 00:00:00 | 00:00:00 | 00:00:00 | |
| SP4MAZ | 2026-08-30 12:15:36 | 52.49347 | 21.46792 | 236° | 16km/h | 20962m | 5.9m/s | -53.9°C | 1.2% | 50.5hPa | 0V | 00:00:00 | 00:00:00 | 00:00:00 | |
| SQ9EZE-16 | 2026-08-30 12:15:20 | 52.49386 | 21.46795 | 181° | 20km/h | 20874m | 6.3m/s | 0°C | 0% | 0hPa | 0V | 00:00:00 | 00:00:00 | 00:00:00 | |
| SP3WXH-11 | 2026-08-30 12:15:14 | 52.49416 | 21.46766 | 128° | 11km/h | 20826m | 7.1m/s | -53.8°C | 1.2% | 51.6hPa | 0V | 00:00:00 | 00:00:00 | 00:00:00 | |
| SQ9EZE-15 | 2026-08-30 12:15:10 | 52.49419 | 21.46761 | 139° | 7km/h | 20814m | 7.1m/s | 0°C | 0% | 0hPa | 0V | 00:00:00 | 00:00:00 | 00:00:00 | |
| SP3BTT-10 | 2026-08-30 12:15:06 | 52.49432 | 21.46749 | 123° | 18km/h | 20782m | 5.3m/s | 0°C | 0% | 0hPa | 0V | 00:00:00 | 00:00:00 | 00:00:00 | |
| SP4MAZ | 2026-08-30 12:14:44 | 52.49457 | 21.46590 | 84° | 18km/h | 20653m | 5.0m/s | -53.9°C | 1.2% | 53.0hPa | 0V | 00:00:00 | 00:00:00 | 00:00:00 | |
| SP3WXH-11 | 2026-08-30 12:14:43 | 52.49456 | 21.46575 | 92° | 16km/h | 20641m | 6.2m/s | -54.0°C | 1.2% | 53.1hPa | 0V | 00:00:00 | 00:00:00 | 00:00:00 | |
| SQ9EZE-15 | 2026-08-30 12:14:28 | 52.49442 | 21.46444 | 74° | 24km/h | 20566m | 6.2m/s | 0°C | 0% | 0hPa | 0V | 00:00:00 | 00:00:00 | 00:00:00 | |
| SQ9EZE-16 | 2026-08-30 12:14:17 | 52.49421 | 21.46362 | 57° | 18km/h | 20501m | 5.6m/s | 0°C | 0% | 0hPa | 0V | 00:00:00 | 00:00:00 | 00:00:00 | |
| SP4MAZ | 2026-08-30 12:14:13 | 52.49407 | 21.46332 | 59° | 22km/h | 20476m | 6.9m/s | -54.1°C | 1.2% | 54.5hPa | 0V | 00:00:00 | 00:00:00 | 00:00:00 | |
| SP3WXH-11 | 2026-08-30 12:14:12 | 52.49398 | 21.46318 | 38° | 13km/h | 20458m | 7.2m/s | -54.1°C | 1.2% | 54.7hPa | 0V | 00:00:00 | 00:00:00 | 00:00:00 | |
| SP3BTT-10 | 2026-08-30 12:14:05 | 52.49379 | 21.46325 | 349° | 11km/h | 20425m | 6.0m/s | 0°C | 0% | 0hPa | 0V | 00:00:00 | 00:00:00 | 00:00:00 | |
| SQ9EZE-16 | 2026-08-30 12:14:01 | 52.49358 | 21.46327 | 15° | 18km/h | 20403m | 4.6m/s | 0°C | 0% | 0hPa | 0V | 00:00:00 | 00:00:00 | 00:00:00 | |
| SP4MAZ | 2026-08-30 12:13:52 | 52.49329 | 21.46313 | 354° | 18km/h | 20358m | 5.5m/s | -54.1°C | 1.2% | 55.5hPa | 0V | 00:00:00 | 00:00:00 | 00:00:00 | |
| SP3WXH-11 | 2026-08-30 12:13:41 | 52.49273 | 21.46284 | 34° | 16km/h | 20285m | 5.3m/s | -54.2°C | 1.2% | 56.2hPa | 0V | 00:00:00 | 00:00:00 | 00:00:00 | |
| SP4MAZ | 2026-08-30 12:13:28 | 52.49213 | 21.46246 | 8° | 16km/h | 20224m | 5.2m/s | -54.3°C | 1.2% | 56.7hPa | 0V | 00:00:00 | 00:00:00 | 00:00:00 | |
| SP3WXH-11 | 2026-08-30 12:13:10 | 52.49154 | 21.46260 | 264° | 9km/h | 20110m | 4.5m/s | -54.3°C | 1.2% | 57.7hPa | 0V | 00:00:00 | 00:00:00 | 00:00:00 | |
| SP4MAZ | 2026-08-30 12:13:08 | 52.49155 | 21.46263 | 259° | 7km/h | 20104m | 6.9m/s | -54.3°C | 1.2% | 57.8hPa | 0V | 00:00:00 | 00:00:00 | 00:00:00 | |
| SP3BTT-10 | 2026-08-30 12:12:50 | 52.49142 | 21.46295 | 41° | 9km/h | 20000m | 6.4m/s | 0°C | 0% | 0hPa | 0V | 00:00:00 | 00:00:00 | 00:00:00 | |
| SP4MAZ | 2026-08-30 12:12:47 | 52.49141 | 21.46292 | 84° | 5km/h | 19989m | 5.0m/s | -54.2°C | 1.2% | 58.8hPa | 0V | 00:00:00 | 00:00:00 | 00:00:00 | |
| SP3WXH-11 | 2026-08-30 12:12:39 | 52.49128 | 21.46280 | 100° | 4km/h | 19932m | 5.1m/s | -53.9°C | 1.2% | 59.4hPa | 0V | 00:00:00 | 00:00:00 | 00:00:00 | |
| SP4MAZ | 2026-08-30 12:12:27 | 52.49133 | 21.46240 | 82° | 7km/h | 19874m | 7.1m/s | -53.9°C | 1.2% | 59.9hPa | 0V | 00:00:00 | 00:00:00 | 00:00:00 | |
| SP3BTT-10 | 2026-08-30 12:12:20 | 52.49128 | 21.46211 | 69° | 11km/h | 19834m | 6.7m/s | 0°C | 0% | 0hPa | 0V | 00:00:00 | 00:00:00 | 00:00:00 | |
| SP3WXH-11 | 2026-08-30 12:12:08 | 52.49096 | 21.46157 | 57° | 13km/h | 19757m | 4.3m/s | -53.0°C | 1.1% | 61.0hPa | 0V | 00:00:00 | 00:00:00 | 00:00:00 | |
| SP4MAZ | 2026-08-30 12:11:57 | 52.49080 | 21.46126 | 63° | 13km/h | 19708m | 6.2m/s | -53.1°C | 1.1% | 61.4hPa | 0V | 00:00:00 | 00:00:00 | 00:00:00 | |
| SP3WXH-11 | 2026-08-30 12:11:36 | 52.49033 | 21.46070 | 52° | 15km/h | 19586m | 5.7m/s | -53.5°C | 1.1% | 62.6hPa | 0V | 00:00:00 | 00:00:00 | 00:00:00 | |
| SP4MAZ | 2026-08-30 12:11:22 | 52.49010 | 21.46038 | 60° | 11km/h | 19513m | 5.1m/s | -53.5°C | 1.2% | 63.4hPa | 0V | 00:00:00 | 00:00:00 | 00:00:00 | |
| SP3BTT-10 | 2026-08-30 12:11:19 | 52.49005 | 21.46024 | 74° | 9km/h | 19490m | 5.4m/s | 0°C | 0% | 0hPa | 0V | 00:00:00 | 00:00:00 | 00:00:00 | |
| SP3WXH-11 | 2026-08-30 12:11:05 | 52.48998 | 21.46005 | 79° | 7km/h | 19410m | 4.9m/s | -53.8°C | 1.2% | 64.4hPa | 0V | 00:00:00 | 00:00:00 | 00:00:00 | |
| SP3WXH-11 | 2026-08-30 12:10:34 | 52.48984 | 21.45992 | 348° | 5km/h | 19232m | 6.8m/s | -53.7°C | 1.2% | 66.1hPa | 0V | 00:00:00 | 00:00:00 | 00:00:00 | |
| SP3WXH-11 | 2026-08-30 12:10:03 | 52.48968 | 21.45831 | 84° | 16km/h | 19056m | 6.8m/s | -53.7°C | 1.2% | 68.0hPa | 0V | 00:00:00 | 00:00:00 | 00:00:00 | |
| SP3WXH-11 | 2026-08-30 12:09:32 | 52.48982 | 21.45652 | 103° | 15km/h | 18881m | 5.6m/s | -53.8°C | 1.2% | 69.9hPa | 0V | 00:00:00 | 00:00:00 | 00:00:00 | |
| SP3WXH-11 | 2026-08-30 12:08:30 | 52.49021 | 21.45437 | 148° | 11km/h | 18537m | 4.4m/s | -54.0°C | 1.3% | 73.8hPa | 0V | 00:00:00 | 00:00:00 | 00:00:00 | |
| SP3WXH-11 | 2026-08-30 12:07:59 | 52.49074 | 21.45276 | 112° | 22km/h | 18365m | 5.5m/s | -53.6°C | 1.2% | 75.8hPa | 0V | 00:00:00 | 00:00:00 | 00:00:00 | |
| SP3WXH-11 | 2026-08-30 12:07:28 | 52.49077 | 21.44937 | 77° | 20km/h | 18190m | 5.7m/s | -54.4°C | 1.3% | 77.8hPa | 0V | 00:00:00 | 00:00:00 | 00:00:00 | |
| SP3WXH-11 | 2026-08-30 12:06:57 | 52.49040 | 21.44695 | 68° | 22km/h | 18023m | 6.6m/s | -54.0°C | 1.3% | 79.9hPa | 0V | 00:00:00 | 00:00:00 | 00:00:00 | |
| SP3WXH-11 | 2026-08-30 12:06:26 | 52.48943 | 21.44531 | 43° | 16km/h | 17855m | 3.9m/s | -55.0°C | 1.4% | 82.0hPa | 0V | 00:00:00 | 00:00:00 | 00:00:00 | |
| SP3WXH-11 | 2026-08-30 12:05:55 | 52.48900 | 21.44339 | 74° | 11km/h | 17681m | 6.1m/s | -55.5°C | 1.4% | 84.2hPa | 0V | 00:00:00 | 00:00:00 | 00:00:00 | |
| SP3WXH-11 | 2026-08-30 12:05:24 | 52.48864 | 21.44146 | 44° | 13km/h | 17485m | 6.1m/s | -54.2°C | 1.4% | 86.9hPa | 0V | 00:00:00 | 00:00:00 | 00:00:00 | |
| SP3WXH-11 | 2026-08-30 12:04:53 | 52.48823 | 21.44012 | 92° | 15km/h | 17267m | 7.7m/s | -52.3°C | 1.2% | 90.0hPa | 0V | 00:00:00 | 00:00:00 | 00:00:00 | |
| SP3WXH-11 | 2026-08-30 12:04:22 | 52.48841 | 21.43821 | 81° | 13km/h | 17060m | 9.3m/s | -50.9°C | 1.2% | 92.8hPa | 0V | 00:00:00 | 00:00:00 | 00:00:00 | |
| SP3WXH-11 | 2026-08-30 12:03:51 | 52.48908 | 21.43507 | 96° | 33km/h | 16852m | 6.9m/s | -50.9°C | 1.2% | 95.8hPa | 0V | 00:00:00 | 00:00:00 | 00:00:00 | |
| SP3WXH-11 | 2026-08-30 12:03:20 | 52.48994 | 21.43052 | 109° | 44km/h | 16658m | 10.5m/s | -49.9°C | 1.1% | 98.7hPa | 0V | 00:00:00 | 00:00:00 | 00:00:00 | |
| SP3WXH-11 | 2026-08-30 12:02:50 | 52.49087 | 21.42539 | 97° | 40km/h | 16459m | 6.4m/s | -50.4°C | 1.2% | 101.8hPa | 0V | 00:00:00 | 00:00:00 | 00:00:00 | |
| SP3WXH-11 | 2026-08-30 12:02:18 | 52.49076 | 21.41946 | 84° | 57km/h | 16270m | 5.2m/s | -52.2°C | 1.3% | 104.8hPa | 0V | 00:00:00 | 00:00:00 | 00:00:00 | |
| SP3WXH-11 | 2026-08-30 12:01:47 | 52.48963 | 21.41336 | 59° | 33km/h | 16070m | 4.8m/s | -52.1°C | 1.4% | 108.1hPa | 0V | 00:00:00 | 00:00:00 | 00:00:00 | |
| SP4MAZ | 2026-08-30 12:01:33 | 52.48908 | 21.41147 | 77° | 29km/h | 15987m | 6.4m/s | -52.2°C | 1.3% | 109.5hPa | 0V | 00:00:00 | 00:00:00 | 00:00:00 | |
| SP3WXH-11 | 2026-08-30 12:01:16 | 52.48860 | 21.40878 | 72° | 42km/h | 15868m | 4.8m/s | -52.7°C | 1.4% | 111.5hPa | 0V | 00:00:00 | 00:00:00 | 00:00:00 | |
| SP4MAZ | 2026-08-30 12:01:14 | 52.48857 | 21.40861 | 76° | 44km/h | 15861m | 6.5m/s | -52.7°C | 1.4% | 111.6hPa | 0V | 00:00:00 | 00:00:00 | 00:00:00 | |
| SP3WXH-11 | 2026-08-30 12:00:45 | 52.48814 | 21.40466 | 84° | 33km/h | 15680m | 4.3m/s | -52.7°C | 1.5% | 114.9hPa | 0V | 00:00:00 | 00:00:00 | 00:00:00 | |
| SP4MAZ | 2026-08-30 12:00:39 | 52.48807 | 21.40393 | 78° | 37km/h | 15647m | 6.1m/s | -52.8°C | 1.5% | 115.4hPa | 0V | 00:00:00 | 00:00:00 | 00:00:00 | |
| SP4MAZ | 2026-08-30 12:00:19 | 52.48784 | 21.40106 | 102° | 40km/h | 15502m | 9.0m/s | -52.7°C | 1.5% | 118.0hPa | 0V | 00:00:00 | 00:00:00 | 00:00:00 | |
| SP3WXH-11 | 2026-08-30 12:00:14 | 52.48797 | 21.40027 | 105° | 27km/h | 15465m | 6.3m/s | -53.0°C | 1.6% | 118.7hPa | 0V | 00:00:00 | 00:00:00 | 00:00:00 | |
| SP4MAZ | 2026-08-30 11:59:42 | 52.48790 | 21.39558 | 87° | 31km/h | 15265m | 4.8m/s | -53.0°C | 1.6% | 122.3hPa | 0V | 00:00:00 | 00:00:00 | 00:00:00 | |
| SP4MAZ | 2026-08-30 11:59:20 | 52.48757 | 21.39253 | 83° | 29km/h | 15124m | 3.8m/s | -53.1°C | 1.7% | 125.0hPa | 0V | 00:00:00 | 00:00:00 | 00:00:00 | |
| SP3WXH-11 | 2026-08-30 11:59:12 | 52.48735 | 21.39147 | 76° | 22km/h | 15061m | 7.6m/s | -52.8°C | 1.7% | 126.3hPa | 0V | 00:00:00 | 00:00:00 | 00:00:00 | |
| SP4MAZ | 2026-08-30 11:58:59 | 52.48727 | 21.39034 | 63° | 29km/h | 14986m | 4.8m/s | -52.9°C | 1.7% | 127.8hPa | 0V | 00:00:00 | 00:00:00 | 00:00:00 | |
| SP3WXH-11 | 2026-08-30 11:58:41 | 52.48760 | 21.38782 | 114° | 27km/h | 14854m | 7.5m/s | -52.5°C | 1.7% | 130.4hPa | 0V | 00:00:00 | 00:00:00 | 00:00:00 | |
| SP4MAZ | 2026-08-30 11:58:29 | 52.48796 | 21.38635 | 107° | 38km/h | 14787m | 9.5m/s | -52.4°C | 1.8% | 131.8hPa | 0V | 00:00:00 | 00:00:00 | 00:00:00 | |
| SP3WXH-11 | 2026-08-30 11:58:10 | 52.48827 | 21.38240 | 91° | 51km/h | 14644m | 6.5m/s | -52.8°C | 2.0% | 134.7hPa | 0V | 00:00:00 | 00:00:00 | 00:00:00 | |
| SP4MAZ | 2026-08-30 11:58:08 | 52.48827 | 21.38240 | 93° | 51km/h | 14644m | 6.5m/s | -52.8°C | 2.0% | 134.7hPa | 0V | 00:00:00 | 00:00:00 | 00:00:00 | |
| SP3WXH-11 | 2026-08-30 11:57:39 | 52.48832 | 21.37606 | 106° | 44km/h | 14438m | 4.7m/s | -51.4°C | 2.2% | 139.2hPa | 0V | 00:00:00 | 00:00:00 | 00:00:00 | |
| SP4MAZ | 2026-08-30 11:57:25 | 52.48842 | 21.37380 | 109° | 49km/h | 14362m | 4.9m/s | -51.4°C | 2.4% | 140.8hPa | 0V | 00:00:00 | 00:00:00 | 00:00:00 | |
| SP3WXH-11 | 2026-08-30 11:57:07 | 52.48867 | 21.36989 | 103° | 44km/h | 14238m | 9.0m/s | -51.9°C | 2.3% | 143.4hPa | 0V | 00:00:00 | 00:00:00 | 00:00:00 | |
| SP4MAZ | 2026-08-30 11:57:05 | 52.48870 | 21.36971 | 101° | 46km/h | 14232m | 4.8m/s | -51.9°C | 2.4% | 143.6hPa | 0V | 00:00:00 | 00:00:00 | 00:00:00 | |
| SP3WXH-11 | 2026-08-30 11:56:37 | 52.48872 | 21.36365 | 87° | 46km/h | 14038m | 5.1m/s | -51.6°C | 2.3% | 148.0hPa | 0V | 00:00:00 | 00:00:00 | 00:00:00 | |
| SP4MAZ | 2026-08-30 11:56:34 | 52.48871 | 21.36346 | 89° | 46km/h | 14031m | 8.3m/s | -51.6°C | 2.3% | 148.1hPa | 0V | 00:00:00 | 00:00:00 | 00:00:00 | |
| SP4MAZ | 2026-08-30 11:56:14 | 52.48866 | 21.35957 | 84° | 49km/h | 13890m | 6.1m/s | -51.1°C | 2.3% | 151.3hPa | 0V | 00:00:00 | 00:00:00 | 00:00:00 | |
| SP3WXH-11 | 2026-08-30 11:56:05 | 52.48843 | 21.35735 | 78° | 51km/h | 13819m | 8.9m/s | -51.1°C | -1.0% | -1.0hPa | 0V | 00:00:00 | 00:00:00 | 00:00:00 | |
| SP4MAZ | 2026-08-30 11:55:53 | 52.48834 | 21.35483 | 82° | 55km/h | 13749m | 6.5m/s | -51.2°C | 2.4% | 154.6hPa | 0V | 00:00:00 | 00:00:00 | 00:00:00 | |
| SP3WXH-11 | 2026-08-30 11:55:34 | 52.48795 | 21.35030 | 82° | 55km/h | 13615m | 6.7m/s | 0°C | -1.0% | -1.0hPa | 0V | 00:00:00 | 00:00:00 | 00:00:00 | |
| SP4MAZ | 2026-08-30 11:55:29 | 52.48787 | 21.34938 | 77° | 53km/h | 13588m | 5.3m/s | -51.5°C | 2.4% | 158.6hPa | 0V | 00:00:00 | 00:00:00 | 00:00:00 | |
| SP4MAZ | 2026-08-30 11:54:59 | 52.48742 | 21.34372 | 83° | 40km/h | 13380m | 6.7m/s | -50.7°C | 2.2% | 163.7hPa | 0V | 00:00:00 | 00:00:00 | 00:00:00 | |
| SP4MAZ | 2026-08-30 11:54:39 | 52.48723 | 21.33994 | 87° | 53km/h | 13256m | 8.6m/s | -51.0°C | 2.4% | 166.9hPa | 0V | 00:00:00 | 00:00:00 | 00:00:00 | |
| SP4MAZ | 2026-08-30 11:54:15 | 52.48697 | 21.33414 | 80° | 60km/h | 13116m | 5.3m/s | -51.6°C | 2.8% | 170.6hPa | 0V | 00:00:00 | 00:00:00 | 00:00:00 | |
| SP4MAZ | 2026-08-30 11:53:54 | 52.48634 | 21.32885 | 75° | 57km/h | 12974m | 4.4m/s | -52.1°C | 3.1% | 174.3hPa | 0V | 00:00:00 | 00:00:00 | 00:00:00 | |
| SP4MAZ | 2026-08-30 11:53:01 | 52.48445 | 21.31804 | 72° | 58km/h | 12652m | 8.6m/s | -52.6°C | 4.5% | 183.2hPa | 0V | 00:00:00 | 00:00:00 | 00:00:00 | |
| SP4MAZ | 2026-08-30 11:52:29 | 52.48351 | 21.31166 | 67° | 46km/h | 12461m | 4.6m/s | -53.5°C | 6.0% | 188.7hPa | 0V | 00:00:00 | 00:00:00 | 00:00:00 | |
| SP4MAZ | 2026-08-30 11:51:01 | 52.48228 | 21.29166 | 81° | 66km/h | 11933m | 6.9m/s | -53.3°C | 11.5% | 204.9hPa | 0V | 00:00:00 | 00:00:00 | 00:00:00 | |
| SP4MAZ | 2026-08-30 11:50:24 | 52.48121 | 21.28345 | 79° | 47km/h | 11740m | 6.3m/s | -54.8°C | 18.8% | 211.1hPa | 0V | 00:00:00 | 00:00:00 | 00:00:00 | |
| SP4MAZ | 2026-08-30 11:50:04 | 52.47997 | 21.27944 | 73° | 53km/h | 11609m | 4.9m/s | -54.2°C | 20.8% | 215.4hPa | 0V | 00:00:00 | 00:00:00 | 00:00:00 | |
| SP4MAZ | 2026-08-30 11:49:43 | 52.47885 | 21.27530 | 77° | 57km/h | 11499m | 5.3m/s | -54.4°C | 26.5% | 219.2hPa | 0V | 00:00:00 | 00:00:00 | 00:00:00 | |
| SP4MAZ | 2026-08-30 11:49:10 | 52.47750 | 21.26819 | 63° | 57km/h | 11337m | 5.1m/s | -54.2°C | 31.0% | 224.8hPa | 0V | 00:00:00 | 00:00:00 | 00:00:00 | |
| SP4MAZ | 2026-08-30 11:48:50 | 52.47614 | 21.26397 | 58° | 57km/h | 11238m | 6.4m/s | -54.1°C | 33.6% | 228.3hPa | 0V | 00:00:00 | 00:00:00 | 00:00:00 | |
| SP4MAZ | 2026-08-30 11:48:27 | 52.47448 | 21.25934 | 53° | 58km/h | 11123m | 5.9m/s | -53.7°C | 36.1% | 232.4hPa | 0V | 00:00:00 | 00:00:00 | 00:00:00 | |
| SP4MAZ | 2026-08-30 11:47:55 | 52.47212 | 21.25258 | 70° | 55km/h | 10946m | 7.0m/s | -52.8°C | 36.5% | 238.9hPa | 0V | 00:00:00 | 00:00:00 | 00:00:00 | |
| SP4MAZ | 2026-08-30 11:47:35 | 52.47086 | 21.24820 | 63° | 55km/h | 10822m | 3.8m/s | -52.0°C | 34.8% | 243.5hPa | 0V | 00:00:00 | 00:00:00 | 00:00:00 | |
| SP4MAZ | 2026-08-30 11:47:15 | 52.46929 | 21.24413 | 57° | 51km/h | 10717m | 7.6m/s | -51.3°C | 41.9% | 247.6hPa | 0V | 00:00:00 | 00:00:00 | 00:00:00 | |
| SP4MAZ | 2026-08-30 11:46:52 | 52.46778 | 21.24024 | 64° | 53km/h | 10579m | 5.5m/s | -50.4°C | 37.4% | 253.0hPa | 0V | 00:00:00 | 00:00:00 | 00:00:00 | |
| SP4MAZ | 2026-08-30 11:46:21 | 52.46556 | 21.23418 | 65° | 53km/h | 10393m | 4.8m/s | -48.9°C | 33.5% | 260.2hPa | 0V | 00:00:00 | 00:00:00 | 00:00:00 | |
| SP4MAZ | 2026-08-30 11:46:01 | 52.46412 | 21.23006 | 59° | 58km/h | 10292m | 8.6m/s | -48.2°C | 32.9% | 264.2hPa | 0V | 00:00:00 | 00:00:00 | 00:00:00 | |
| SP4MAZ | 2026-08-30 11:45:38 | 52.46218 | 21.22496 | 58° | 64km/h | 10138m | 5.5m/s | -46.8°C | 0% | 270.4hPa | 0V | 00:00:00 | 00:00:00 | 00:00:00 | |
| SP4MAZ | 2026-08-30 11:45:06 | 52.45910 | 21.21816 | 55° | 66km/h | 9958m | 8.5m/s | -45.3°C | 27.2% | 277.9hPa | 0V | 00:00:00 | 00:00:00 | 00:00:00 | |
| SP4MAZ | 2026-08-30 11:44:46 | 52.45703 | 21.21356 | 54° | 60km/h | 9824m | 5.8m/s | -44.2°C | 26.9% | 283.5hPa | 0V | 00:00:00 | 00:00:00 | 00:00:00 | |
| SP4MAZ | 2026-08-30 11:44:23 | 52.45471 | 21.20906 | 55° | 75km/h | 9695m | 8.1m/s | -43.2°C | 0% | 289.1hPa | 0V | 00:00:00 | 00:00:00 | 00:00:00 | |
| SP4MAZ | 2026-08-30 11:44:01 | 52.45252 | 21.20484 | 53° | 51km/h | 9552m | 4.8m/s | -42.0°C | 0% | 295.3hPa | 0V | 00:00:00 | 00:00:00 | 00:00:00 | |
| SP4MAZ | 2026-08-30 11:43:41 | 52.45069 | 21.20108 | 50° | 71km/h | 9441m | 5.6m/s | -41.2°C | 0% | 300.1hPa | 0V | 00:00:00 | 00:00:00 | 00:00:00 | |
| SP4MAZ | 2026-08-30 11:43:10 | 52.44810 | 21.19507 | 55° | 53km/h | 9279m | 5.6m/s | 0°C | 0% | 307.3hPa | 0V | 00:00:00 | 00:00:00 | 00:00:00 | |
| SP4MAZ | 2026-08-30 11:42:49 | 52.44650 | 21.19068 | 70° | 58km/h | 9148m | 7.7m/s | 0°C | 0% | 313.2hPa | 0V | 00:00:00 | 00:00:00 | 00:00:00 | |
| SP4MAZ | 2026-08-30 11:42:26 | 52.44458 | 21.18508 | 70° | 71km/h | 9014m | 6.6m/s | -38.2°C | 0% | 319.4hPa | 0V | 00:00:00 | 00:00:00 | 00:00:00 | |
| SP4MAZ | 2026-08-30 11:41:54 | 52.44211 | 21.17779 | 63° | 55km/h | 8827m | 5.9m/s | 0°C | 0% | 328.0hPa | 0V | 00:00:00 | 00:00:00 | 00:00:00 | |
| SP4MAZ | 2026-08-30 11:41:35 | 52.44052 | 21.17360 | 53° | 62km/h | 8704m | 5.6m/s | 0°C | 0% | 333.9hPa | 0V | 00:00:00 | 00:00:00 | 00:00:00 | |
| SP4MAZ | 2026-08-30 11:41:11 | 52.43914 | 21.16812 | 54° | 53km/h | 8563m | 8.0m/s | -34.5°C | 0% | 0hPa | 0V | 00:00:00 | 00:00:00 | 00:00:00 | |
| SP4MAZ | 2026-08-30 11:40:51 | 52.43784 | 21.16384 | 77° | 53km/h | 8436m | 5.3m/s | -33.4°C | 0% | 0hPa | 0V | 00:00:00 | 00:00:00 | 00:00:00 | |
| SP4MAZ | 2026-08-30 11:40:21 | 52.43610 | 21.15690 | 74° | 58km/h | 8258m | 5.8m/s | 0°C | 0% | 0hPa | 0V | 00:00:00 | 00:00:00 | 00:00:00 | |
| SP4MAZ | 2026-08-30 11:40:01 | 52.43540 | 21.15256 | 76° | 57km/h | 8133m | 5.6m/s | 0°C | 0% | 0hPa | 0V | 00:00:00 | 00:00:00 | 00:00:00 | |
| SP4MAZ | 2026-08-30 11:39:40 | 52.43470 | 21.14791 | 90° | 55km/h | 8008m | 4.3m/s | 0°C | 0% | 0hPa | 0V | 00:00:00 | 00:00:00 | 00:00:00 | |
| SP4MAZ | 2026-08-30 11:39:17 | 52.43390 | 21.14270 | 80° | 40km/h | 7852m | 4.4m/s | -28.8°C | 0% | 0hPa | 0V | 00:00:00 | 00:00:00 | 00:00:00 | |
| SP4MAZ | 2026-08-30 11:38:47 | 52.43267 | 21.13707 | 68° | 55km/h | 7674m | 3.9m/s | 0°C | 0% | 0hPa | 0V | 00:00:00 | 00:00:00 | 00:00:00 | |
| SP4MAZ | 2026-08-30 11:38:27 | 52.43188 | 21.13359 | 81° | 46km/h | 7549m | 5.2m/s | 0°C | 0% | 0hPa | 0V | 00:00:00 | 00:00:00 | 00:00:00 | |
| SP4MAZ | 2026-08-30 11:38:06 | 52.43102 | 21.13069 | 62° | 51km/h | 7425m | 6.3m/s | 0°C | 0% | 0hPa | 0V | 00:00:00 | 00:00:00 | 00:00:00 | |
| SP4MAZ | 2026-08-30 11:37:45 | 52.42994 | 21.12811 | 57° | 49km/h | 7311m | 5.8m/s | 0°C | 0% | 0hPa | 0V | 00:00:00 | 00:00:00 | 00:00:00 | |
| SP4MAZ | 2026-08-30 11:36:52 | 52.42805 | 21.12047 | 59° | 42km/h | 7002m | 3.9m/s | 0°C | 0% | 0hPa | 0V | 00:00:00 | 00:00:00 | 00:00:00 | |
| SP4MAZ | 2026-08-30 11:36:31 | 52.42767 | 21.11665 | 60° | 57km/h | 6884m | 6.7m/s | 0°C | 0% | 0hPa | 0V | 00:00:00 | 00:00:00 | 00:00:00 | |
| SP4MAZ | 2026-08-30 11:36:11 | 52.42692 | 21.11281 | 83° | 40km/h | 6779m | 6.0m/s | 0°C | 0% | 0hPa | 0V | 00:00:00 | 00:00:00 | 00:00:00 | |
| SP4MAZ | 2026-08-30 11:35:48 | 52.42617 | 21.10784 | 63° | 62km/h | 6657m | 5.9m/s | 0°C | 0% | 0hPa | 0V | 00:00:00 | 00:00:00 | 00:00:00 | |
| SP4MAZ | 2026-08-30 11:34:56 | 52.42480 | 21.09681 | 77° | 60km/h | 6358m | 5.4m/s | 0°C | 0% | 0hPa | 0V | 00:00:00 | 00:00:00 | 00:00:00 | |
| SP4MAZ | 2026-08-30 11:34:34 | 52.42412 | 21.09295 | 62° | 55km/h | 6251m | 4.6m/s | 0°C | 0% | 0hPa | 0V | 00:00:00 | 00:00:00 | 00:00:00 | |
| SP4MAZ | 2026-08-30 11:34:14 | 52.42326 | 21.08946 | 68° | 58km/h | 6137m | 6.2m/s | 0°C | 0% | 0hPa | 0V | 00:00:00 | 00:00:00 | 00:00:00 | |
| SP4MAZ | 2026-08-30 11:33:52 | 52.42250 | 21.08559 | 72° | 38km/h | 6013m | 7.0m/s | 0°C | 0% | 0hPa | 0V | 00:00:00 | 00:00:00 | 00:00:00 | |
| SP4MAZ | 2026-08-30 11:33:18 | 52.42139 | 21.07984 | 77° | 49km/h | 5820m | 4.7m/s | 0°C | 0% | 0hPa | 0V | 00:00:00 | 00:00:00 | 00:00:00 | |
| SP4MAZ | 2026-08-30 11:32:43 | 52.42017 | 21.07373 | 77° | 55km/h | 5629m | 7.1m/s | 0°C | 0% | 0hPa | 0V | 00:00:00 | 00:00:00 | 00:00:00 | |
| SP4MAZ | 2026-08-30 11:32:12 | 52.41912 | 21.06782 | 89° | 51km/h | 5449m | 6.4m/s | 0°C | 0% | 0hPa | 0V | 00:00:00 | 00:00:00 | 00:00:00 | |
| SP4MAZ | 2026-08-30 11:31:47 | 52.41881 | 21.06311 | 64° | 44km/h | 5312m | 8.2m/s | 0°C | 0% | 0hPa | 0V | 00:00:00 | 00:00:00 | 00:00:00 | |
| SP4MAZ | 2026-08-30 11:31:26 | 52.41839 | 21.05989 | 67° | 37km/h | 5192m | 6.5m/s | 0°C | 0% | 0hPa | 0V | 00:00:00 | 00:00:00 | 00:00:00 | |
| SP4MAZ | 2026-08-30 11:31:05 | 52.41816 | 21.05662 | 72° | 33km/h | 5075m | 6.4m/s | 0°C | 0% | 0hPa | 0V | 00:00:00 | 00:00:00 | 00:00:00 | |
| SP4MAZ | 2026-08-30 11:30:33 | 52.41819 | 21.05117 | 95° | 35km/h | 4888m | 5.7m/s | 0°C | 0% | 0hPa | 0V | 00:00:00 | 00:00:00 | 00:00:00 | |
| SP4MAZ | 2026-08-30 11:29:06 | 52.41940 | 21.03593 | 85° | 33km/h | 4395m | 6.2m/s | 0°C | 0% | 0hPa | 0V | 00:00:00 | 00:00:00 | 00:00:00 | |
| SP4MAZ | 2026-08-30 11:27:35 | 52.42056 | 21.02277 | 118° | 29km/h | 3902m | 4.4m/s | 0°C | 0% | 0hPa | 0V | 00:00:00 | 00:00:00 | 00:00:00 | |
| SP4MAZ | 2026-08-30 11:26:27 | 52.42077 | 21.01271 | 101° | 38km/h | 3562m | 4.0m/s | 0°C | 0% | 0hPa | 0V | 00:00:00 | 00:00:00 | 00:00:00 |